Dewpoint
56 56 56 56 56 56 56 56 56 56 57 57 57 56 57 57 56 57 56 56 56 56 56 56 56 56 56 56 56 56 57 54 53 51 50 41 49 54 65 62 66 67 65 54 44 27 29 37 41 42 43 46 46 48 50 61 67 64 58 56 54 56 56 61 58 60 64 60 61 63 64 59 58 62 64 61 61 60 60 59 60 60 60 61 63 65 66 67
56 56 56 56 56 56 55 55 55 55 55 55 55 56 56 56 56 56 56 56 56 56 56 56 56 56 55 56 56 57 56 54 51 51 50 52 59 60 64 65 67 69 61 42 39 27 30 34 39 40 41 43 49 49 60 63 67 60 58 57 54 58 59 63 61 65 62 60 63 63 65 59 59 62 62 58 59 58 58 59 59 59 61 63 64 65 66 67
56 56 56 56 56 56 56 56 56 55 55 55 55 55 56 56 56 56 56 56 56 56 56 56 56 56 56 56 57 57 55 52 52 47 46 65 64 66 65 66 66 67 37 37 33 25 29 32 30 39 41 40 43 50 62 62 64 63 58 56 57 60 62 64 64 65 66 64 63 63 63 60 62 64 66 58 57 58 57 57 58 59 61 62 64 65 66 67
57 56 56 56 56 56 56 56 56 56 56 56 56 56 56 56 56 56 55 56 56 56 56 56 56 56 56 57 57 56 53 51 41 42 47 64 69 64 68 66 68 68 36 24 25 24 26 22 26 28 31 39 42 46 60 64 60 62 59 57 58 63 62 63 65 65 66 64 63 64 64 60 63 65 62 59 56 57 57 58 58 59 61 63 64 65 66 66
57 56 56 56 56 56 56 56 56 55 55 56 56 55 55 55 55 55 55 55 56 56 56 56 56 56 56 57 57 56 50 35 38 44 47 69 71 68 67 69 67 65 39 26 20 20 15 19 23 32 33 35 42 46 55 62 62 62 58 61 62 65 63 66 66 66 66 65 64 64 60 60 64 65 60 58 55 55 57 58 59 60 62 63 64 65 65 66
57 57 57 57 56 56 56 56 56 55 55 55 55 55 55 56 56 55 55 55 55 56 56 56 56 56 57 57 56 54 39 27 34 35 76 71 71 69 67 69 67 53 35 27 22 21 12 21 24 31 36 35 39 42 52 60 62 56 60 62 63 63 63 66 66 66 66 64 64 63 63 65 64 63 62 58 56 58 61 60 60 61 62 64 64 65 65 65
56 57 57 57 57 57 57 56 56 56 56 56 56 56 56 55 55 55 55 55 55 55 56 56 56 56 57 58 54 52 39 33 42 39 67 72 72 70 68 68 67 36 31 29 25 19 23 29 26 34 39 37 36 38 60 61 64 59 57 62 63 65 63 67 67 67 65 65 64 66 67 63 63 60 64 59 62 61 61 59 60 62 63 64 64 64 65 65
56 56 57 57 57 57 57 56 56 56 56 56 56 55 55 55 55 55 55 55 55 56 55 56 56 57 57 55 50 43 44 40 42 46 73 71 69 70 67 60 46 37 31 29 21 16 26 29 32 38 37 36 41 57 63 60 62 59 61 64 63 65 66 67 67 66 67 66 67 63 63 62 63 62 62 60 61 60 60 60 61 62 62 63 63 64 65 65
56 56 56 57 57 57 57 57 56 56 56 56 55 55 55 55 55 55 55 55 56 56 55 56 57 57 57 55 47 39 36 44 47 61 66 63 62 55 52 50 45 37 35 29 19 13 28 29 33 37 36 37 36 60 61 57 56 60 63 64 64 65 66 65 66 67 66 66 65 63 62 63 65 65 62 61 60 60 60 59 60 61 61 61 62 63 64 64
56 56 56 57 57 57 57 57 57 56 56 55 55 55 55 55 55 55 55 55 56 56 56 56 57 57 55 50 31 21 33 38 66 66 61 62 58 51 45 45 42 37 30 30 25 21 29 35 35 41 41 39 38 52 60 56 56 64 63 64 64 65 65 66 65 66 67 66 66 61 62 63 64 63 57 63 60 59 59 58 58 59 59 59 60 61 63 64
56 56 56 57 57 57 57 57 57 56 56 56 55 55 55 55 55 55 55 56 56 57 56 57 57 57 54 47 17 7 17 33 61 60 59 60 53 48 43 41 40 34 27 28 25 25 27 33 38 40 41 37 51 58 59 62 64 63 63 63 63 63 64 65 65 65 65 63 66 63 62 63 63 62 59 59 61 60 58 57 57 57 56 57 58 59 62 63
56 56 57 57 56 56 56 56 56 56 56 55 55 55 55 55 55 55 55 56 56 57 57 57 58 56 54 45 29 18 36 37 60 57 58 53 48 46 43 39 33 30 24 22 28 29 28 37 41 41 37 35 60 63 63 64 63 63 63 61 61 61 61 62 63 63 64 62 65 63 61 59 60 60 62 60 61 60 58 57 56 56 56 56 56 56 61 63
56 57 57 56 56 56 56 56 56 56 55 55 55 55 55 55 55 55 56 55 56 57 57 58 58 56 53 39 44 41 43 45 42 54 55 49 37 33 36 35 30 24 21 16 25 30 33 37 41 40 39 33 46 45 63 64 62 63 63 62 60 60 59 61 63 63 63 63 65 64 54 57 59 61 62 62 60 60 58 57 56 56 55 55 55 55 60 62
56 56 56 56 56 56 56 56 56 55 55 55 55 54 54 55 55 56 56 55 56 58 57 57 56 55 50 42 43 50 50 49 45 43 52 51 39 33 28 28 30 26 27 21 26 27 30 32 31 26 28 24 49 63 61 60 62 60 62 60 58 57 57 62 62 62 61 64 64 64 54 56 59 60 62 64 60 59 57 57 56 55 55 55 54 54 59 62
56 56 56 56 56 56 56 56 55 55 55 55 54 54 54 54 55 56 56 57 57 58 58 58 56 52 48 46 49 53 65 50 43 31 43 44 38 35 32 27 22 24 24 24 26 26 25 23 25 27 26 34 62 59 56 58 60 60 54 53 56 55 57 60 62 62 59 62 64 62 54 56 58 60 62 65 60 59 56 56 56 55 55 54 53 55 59 61
56 56 56 56 56 56 55 55 55 54 54 54 54 54 55 55 56 57 57 57 58 58 57 55 55 52 47 42 37 55 39 23 17 23 27 44 40 35 33 30 31 28 24 21 21 21 22 23 19 24 29 60 57 56 54 53 54 57 53 52 54 56 56 57 59 62 63 62 61 61 55 57 58 61 62 65 59 58 56 56 56 55 54 53 52 56 58 60
56 56 56 56 56 55 55 55 54 54 54 54 54 54 55 56 56 57 58 59 59 57 56 50 54 54 36 42 45 38 33 25 24 29 25 34 36 34 33 32 31 29 26 22 25 25 28 25 34 34 28 41 52 54 50 48 49 51 55 52 55 55 56 55 59 61 62 61 59 61 58 57 60 60 61 64 59 58 56 56 55 55 54 52 52 56 58 59
56 56 56 56 56 55 55 55 55 54 53 53 54 53 54 55 57 58 59 59 56 54 52 52 51 41 27 38 32 28 28 28 27 27 33 33 30 32 31 32 29 27 26 25 26 23 28 28 28 25 25 28 49 49 44 41 47 49 52 52 55 56 56 55 55 58 61 61 59 60 58 58 59 59 60 62 60 57 55 55 55 54 53 51 52 55 57 58
56 56 56 55 55 55 55 55 54 54 53 54 54 55 57 57 54 54 53 54 49 39 29 42 41 29 19 22 34 35 33 28 29 25 25 28 39 31 33 27 22 20 20 22 21 28 27 26 28 27 24 24 42 48 39 39 52 51 53 53 55 54 55 56 58 61 61 59 59 58 56 57 59 60 62 63 62 55 55 55 54 53 51 51 51 54 56 57
56 56 55 55 55 55 55 55 54 53 53 52 49 51 45 29 31 30 52 52 47 34 29 30 41 36 37 36 35 36 32 26 23 23 27 27 29 30 30 24 19 20 20 19 20 24 27 24 24 25 25 24 23 35 38 43 54 55 56 56 55 56 56 58 59 60 62 59 58 58 58 58 59 60 62 62 62 57 54 53 53 52 51 51 51 54 55 56
56 56 55 55 55 55 55 54 53 53 53 51 50 32 26 28 27 28 30 31 45 43 37 35 38 38 33 35 34 26 24 24 21 21 24 35 30 28 27 23 14 17 16 21 18 22 24 24 21 23 26 25 25 22 23 23 53 53 55 55 54 55 55 58 57 59 62 59 57 60 58 58 59 59 60 61 62 55 53 52 52 51 51 52 51 53 55 56
55 55 55 55 54 54 54 54 53 53 52 49 48 30 27 27 29 32 31 28 29 32 40 36 38 39 40 39 39 30 21 23 20 21 22 31 29 26 27 17 15 15 15 13 15 15 21 19 20 20 23 27 26 22 27 41 53 55 54 54 54 56 58 59 59 60 60 60 57 58 57 57 59 60 61 61 62 62 62 53 51 51 51 52 51 53 54 53
55 55 55 55 54 54 53 53 52 52 51 46 33 33 34 33 38 34 30 29 29 31 33 33 33 35 34 36 38 31 24 16 17 20 21 29 28 27 25 21 20 18 16 13 13 19 12 12 14 18 22 22 23 23 24 53 53 53 54 53 53 56 55 53 58 58 58 59 57 57 57 57 59 61 60 61 63 62 62 63 60 53 51 51 51 52 53 52
55 55 55 55 54 53 53 53 52 52 50 43 39 33 31 33 33 31 33 31 29 31 34 32 32 30 30 25 21 19 17 17 18 18 32 27 25 28 26 23 22 22 19 13 11 10 10 12 16 15 17 19 19 20 50 51 51 53 54 52 54 55 56 55 56 58 59 59 60 58 56 56 57 57 58 61 63 61 61 62 62 58 52 52 52 52 52 53
54 55 55 54 53 53 52 52 46 47 48 46 42 40 38 37 33 30 32 32 34 33 36 30 31 20 19 23 26 18 22 25 20 23 31 26 25 25 25 28 24 22 21 20 13 11 9 10 12 11 16 17 18 19 48 50 50 52 53 54 55 57 56 56 57 56 55 54 58 57 50 51 56 56 57 59 61 59 61 60 59 55 54 52 51 51 52 56
54 55 55 54 54 52 52 40 47 48 45 30 28 29 33 37 37 37 35 34 30 33 22 27 18 15 22 19 26 26 22 21 23 24 29 25 37 24 28 24 26 23 22 23 19 13 13 15 11 9 10 14 15 13 36 50 50 50 51 54 56 57 56 56 56 55 51 49 54 58 50 48 55 54 56 59 59 59 59 59 60 59 54 52 51 51 51 55
54 55 55 54 53 52 36 37 47 46 18 21 25 37 40 41 46 37 30 28 18 21 18 23 15 14 19 19 23 21 17 21 27 27 28 47 24 34 23 23 24 26 22 23 25 17 12 8 8 9 10 12 13 12 21 50 50 49 50 57 57 57 56 56 55 54 53 56 57 57 56 49 49 54 56 58 58 58 58 58 58 60 59 53 51 51 51 55
55 54 54 53 52 51 46 49 45 31 20 19 39 43 43 43 43 39 34 20 13 17 15 14 14 19 15 16 19 16 19 25 22 22 25 35 28 24 24 22 21 21 23 24 20 23 19 20 10 5 8 9 11 15 27 50 46 48 57 57 57 57 57 56 55 53 55 52 49 54 57 50 49 54 57 58 56 57 57 56 57 58 60 58 51 51 51 54
54 54 54 53 52 51 51 50 48 37 36 44 46 44 42 45 36 34 32 22 21 15 21 17 19 15 15 15 15 16 19 26 23 23 26 28 27 23 21 21 22 21 23 22 20 21 22 19 15 7 5 5 9 11 48 55 55 56 56 55 55 55 55 56 55 54 53 50 47 51 55 48 48 54 54 57 56 55 57 57 57 57 60 61 56 51 52 53
54 54 53 52 50 50 51 51 48 47 49 48 46 44 43 38 35 33 28 22 22 14 17 16 14 12 14 11 12 16 13 21 25 26 27 24 25 24 22 25 23 23 20 25 22 21 21 36 35 20 9 6 7 32 53 55 57 56 53 52 52 52 52 53 54 53 51 46 49 50 54 53 44 51 54 53 54 56 57 57 57 58 59 61 61 53 53 53
54 52 52 51 48 51 51 41 45 50 50 47 44 39 40 38 38 32 25 21 20 15 13 12 12 12 12 11 8 10 18 22 21 25 24 19 17 23 23 18 25 24 26 24 21 22 19 21 23 28 29 32 49 54 56 56 55 54 52 49 47 47 52 49 48 50 45 44 50 52 52 53 44 49 55 58 58 56 56 56 56 56 58 60 61 61 54 52
52 51 51 49 50 53 41 27 43 46 47 44 41 37 35 30 32 22 17 28 19 9 7 6 12 10 10 13 11 13 17 19 21 23 23 18 21 19 19 18 29 18 21 21 16 19 17 16 15 14 47 49 53 53 53 53 52 51 50 46 43 40 42 40 43 41 42 43 51 54 54 51 48 51 59 59 56 57 57 56 56 56 58 60 60 61 58 53
51 50 50 51 52 50 51 48 49 49 45 44 40 37 33 30 19 29 26 14 10 10 6 11 8 14 14 13 13 16 16 15 16 20 21 20 21 21 21 19 25 19 18 26 21 18 17 18 18 18 36 52 52 50 50 49 51 48 45 43 41 37 35 35 39 42 41 49 54 53 56 49 54 56 55 58 59 58 59 57 57 56 57 59 60 61 61 54
50 50 48 51 51 51 50 53 51 49 44 49 37 36 36 27 26 53 21 11 7 12 12 11 9 17 15 12 15 17 14 16 19 17 20 23 18 19 20 21 21 18 21 25 18 18 19 13 16 21 19 23 48 51 51 50 50 46 46 41 41 41 38 34 39 38 40 44 50 55 50 47 48 52 62 58 58 58 59 59 58 57 57 59 60 61 61 57
50 50 49 51 52 52 52 51 49 50 40 38 38 36 30 27 33 28 16 11 11 10 7 10 17 16 15 17 18 19 16 21 21 22 20 20 20 21 20 19 21 19 22 17 27 26 19 18 20 23 21 24 46 52 51 50 48 44 44 42 40 39 43 38 42 43 45 46 47 49 49 52 52 60 63 63 58 58 60 60 59 57 58 59 60 60 61 60
47 50 50 50 51 51 52 52 49 48 37 37 39 32 30 33 28 22 11 13 12 8 6 16 17 17 20 17 21 16 19 19 19 25 25 23 22 21 22 22 20 22 19 22 23 20 25 20 21 23 25 21 35 48 48 49 43 41 41 39 39 43 46 45 47 47 47 44 44 50 51 53 59 61 60 60 58 57 58 59 59 58 58 58 59 60 60 61
43 50 46 49 52 54 51 50 48 42 40 36 34 29 36 37 34 28 44 13 9 9 15 12 14 15 20 15 17 17 16 20 19 22 22 25 21 24 22 22 23 23 24 20 21 20 22 19 20 23 22 24 24 39 47 47 39 37 40 41 39 41 44 43 40 41 41 37 42 49 49 50 48 47 60 58 55 56 57 57 58 58 58 58 59 60 60 60
48 50 53 53 44 51 50 49 42 40 39 37 34 48 44 34 36 31 24 17 10 10 16 19 12 18 19 20 16 18 16 18 19 23 24 26 22 24 23 22 23 24 23 23 23 25 21 20 21 24 24 25 24 32 43 48 33 42 44 35 38 38 37 40 41 38 37 37 39 46 49 50 50 50 56 57 54 53 55 57 57 57 57 58 59 60 60 60
50 45 30 35 48 50 48 47 39 41 37 33 34 32 44 37 36 34 33 31 14 13 10 13 12 21 19 21 19 19 18 17 19 26 23 25 23 25 22 23 24 24 25 27 25 29 26 22 21 24 24 25 22 21 28 22 22 20 27 31 40 38 38 37 37 40 38 39 37 39 45 43 50 49 56 57 55 53 54 56 57 58 57 58 59 60 60 60
40 21 23 36 47 49 48 39 36 35 32 26 33 36 35 31 29 31 29 26 11 8 15 14 15 19 23 21 19 18 20 18 22 21 22 28 22 25 22 26 23 22 26 28 26 29 28 26 22 23 26 24 22 24 22 22 22 19 23 24 29 35 39 39 44 37 36 39 37 39 38 43 46 53 56 57 56 54 54 56 57 57 57 58 60 60 61 60
48 28 25 33 47 48 40 36 34 32 33 35 35 32 30 28 30 27 25 22 11 11 8 12 13 19 19 21 17 22 25 24 20 18 19 21 22 22 23 22 23 21 24 25 25 28 29 30 26 28 25 24 22 25 27 27 23 21 18 25 25 36 34 32 33 37 42 38 36 36 37 44 48 58 55 58 58 56 56 57 57 58 61 62 63 63 62 62
27 13 12 34 45 39 37 35 35 34 30 30 25 29 31 43 34 30 24 14 11 9 16 13 16 20 22 21 20 24 23 23 25 23 21 19 21 20 19 21 22 23 24 27 27 26 30 35 30 28 27 25 25 26 29 32 25 24 31 33 31 32 35 34 29 31 42 44 44 42 39 40 53 60 56 56 59 59 59 59 59 60 60 62 63 64 64 63
29 24 26 33 39 33 31 29 40 44 27 27 31 27 28 28 28 25 21 15 11 13 7 10 14 18 20 22 22 18 24 25 21 21 22 21 19 20 20 21 22 26 28 25 27 23 49 32 29 29 34 35 34 35 34 32 34 35 34 32 42 43 39 32 32 35 40 43 39 39 38 42 51 60 60 58 58 59 61 60 60 60 60 61 63 64 65 65
31 32 32 34 36 35 31 28 28 26 27 29 28 24 26 24 24 22 20 14 11 11 6 7 10 10 14 19 19 22 24 21 26 23 23 26 22 25 24 26 26 28 25 21 23 22 26 30 31 30 31 31 32 34 31 33 32 33 33 33 45 49 48 39 38 42 40 40 40 35 32 38 52 60 60 60 60 60 61 63 61 61 61 61 63 64 65 66
40 40 39 40 46 30 27 27 28 28 32 28 26 24 22 21 21 19 17 10 25 8 5 5 7 8 11 24 23 26 27 22 28 26 24 25 27 30 25 28 29 31 41 45 48 35 29 35 35 29 27 27 28 30 29 31 32 33 36 44 49 50 50 38 27 36 33 41 39 36 37 46 57 59 59 60 60 61 63 63 64 63 62 62 63 64 65 65
32 21 28 33 39 37 38 36 29 32 30 31 34 31 23 20 20 15 13 14 12 11 4 6 9 10 14 22 25 25 27 28 26 28 29 28 29 27 27 28 35 38 56 53 52 40 35 40 39 37 32 31 31 37 37 39 37 41 46 47 49 51 51 34 34 34 31 37 38 40 43 52 54 57 58 59 59 60 61 63 63 64 64 64 64 64 65 65
41 31 33 38 40 40 42 40 41 41 40 35 34 31 31 29 25 12 16 21 13 7 14 13 10 8 11 20 21 23 26 27 34 30 31 31 32 29 30 33 28 45 56 44 48 38 37 32 38 39 36 35 34 39 39 45 45 45 48 48 49 50 51 50 38 30 43 38 34 43 50 50 53 56 58 58 59 61 62 63 63 64 63 64 65 65 66 65
31 35 42 43 36 35 39 38 41 43 42 38 36 33 30 27 22 19 15 15 18 17 9 10 14 9 12 17 22 21 28 33 36 31 36 34 33 29 26 29 27 38 41 27 39 34 31 27 31 38 37 38 39 41 44 46 47 48 49 49 49 50 51 50 49 51 50 34 32 44 52 53 55 57 58 59 59 61 62 62 64 64 65 65 64 64 64 64
37 41 45 45 41 42 41 41 44 45 39 41 41 39 32 31 29 28 15 15 17 19 16 20 21 16 18 26 23 23 31 21 26 36 33 31 31 31 29 29 27 33 28 28 31 41 30 30 34 35 38 40 40 42 43 45 46 46 45 46 49 50 50 51 52 54 50 50 53 55 55 55 58 59 59 60 61 62 62 64 64 64 64 65 65 64 65 65
47 47 46 48 46 45 45 45 43 41 38 43 36 34 36 34 32 32 31 19 24 21 24 17 16 24 23 27 34 19 24 26 30 31 36 32 28 32 31 29 27 32 32 30 29 33 25 28 40 37 36 37 38 40 44 45 45 43 44 44 48 50 50 51 53 53 55 55 55 56 56 55 59 60 60 61 62 63 63 62 63 64 64 64 65 65 65 65
46 50 49 46 42 42 48 44 41 41 39 38 38 40 41 36 33 33 33 24 15 22 21 17 19 24 27 24 26 23 24 34 34 28 37 29 26 33 27 30 29 30 34 30 34 35 30 29 39 38 31 32 36 38 40 42 43 43 43 44 48 50 50 51 51 53 53 53 55 55 54 55 59 61 61 61 61 61 62 62 63 63 64 64 64 64 64 65
48 49 52 47 41 51 43 44 45 38 36 37 43 41 39 36 35 33 31 31 25 20 18 16 20 26 32 25 26 25 27 31 25 25 34 31 25 35 31 29 29 30 33 31 34 26 30 30 31 34 28 32 37 40 42 43 40 37 41 44 49 50 51 52 52 54 54 55 54 53 53 58 60 61 59 60 60 60 60 61 61 62 63 64 64 64 65 65